{"data":{"norad_id":47265,"intl_designator":"2020-100H","name":"ONEWEB-0119","alt_names":[],"object_type":"PAYLOAD","status":"ACTIVE","operator":null,"country":"UK","launch_date":"2020-12-18","launch_site_code":"VOSTO","launch_vehicle":null,"mission":null,"orbit_class":"UNKNOWN","rcs_meters":null,"size_class":null,"mass_kg":null,"dimensions":null,"purposes":["comms"],"wikipedia_slug":null,"has_3d_model":false,"image_url":null,"decayed_at":null,"tle_current":{"epoch":"2026-09-19T23:13:49.038816Z","epoch_age_seconds":60422,"freshness":"FRESH","line1":"1 47265U 20100H   26262.96792869  .00000155  00000+0  39549-3 0  9994","line2":"2 47265  87.8975 331.8472 0001877  97.5454 262.5888 13.12441736277136","mean_motion":13.12441736,"eccentricity":0.0001877,"inclination_deg":87.8975,"raan_deg":331.8472,"arg_perigee_deg":97.5454,"mean_anomaly_deg":262.5888,"bstar":0.00039549,"rev_number":27713,"period_min":109.71915632528,"perigee_km":1212.3031723871,"apogee_km":1215.1531585702,"semimajor_km":7591.8651654787,"source":"CELESTRAK","updated_at":"2026-09-20T09:00:44.577202Z"}}}